Regional Weather Roundup
Issued by NWS

Home | Current Version | Previous Version | Text Only | Print | Product List | Glossary Off
Versions: 1 2 3 4 5 6 7 8 9 10 11 12 13 14 15 16 17 18 19 20 21 22 23 24 25 26 27 28 29 30 31 32 33 34 35 36 37 38 39 40 41 42 43 44 45 46 47 48 49 50

000
ASUS43 KBIS 022102
RWRND

NORTH DAKOTA REGIONAL WEATHER ROUNDUP
NATIONAL WEATHER SERVICE BISMARCK ND
400 PM CDT THU JUL 02 2015

NOTE: "FAIR" INDICATES FEW OR NO CLOUDS BELOW 12,000 FEET WITH NO
SIGNIFICANT WEATHER AND/OR OBSTRUCTIONS TO VISIBILITY.


NDZ001>003-009>011-017-022200-
NORTHWEST NORTH DAKOTA

CITY           SKY/WX    TMP DP  RH WIND       PRES   REMARKS
WILLISTON      MOSUNNY   83  58  42 NW8G16    30.01F
MINOT          MOSUNNY   79  62  56 NW12      29.96F HAZE
MINOT AFB      SUNNY     83  68  60 NW14      29.95F HAZE
$$

NDZ018>021-031>035-040>046-022200-
SOUTHWEST NORTH DAKOTA

CITY           SKY/WX    TMP DP  RH WIND       PRES   REMARKS
BISMARCK       MOSUNNY   79  62  56 N13       29.97S HAZE
DICKINSON      MOSUNNY   78  58  49 N13       30.03S HAZE
GARRISON         N/A     78  63  59 NW12      29.98F
HETTINGER ARPT MOSUNNY   77  60  55 NW10      30.05F
$$

NDZ004>008-012>016-024-026-027-054-022200-
NORTHEAST NORTH DAKOTA

CITY           SKY/WX    TMP DP  RH WIND       PRES   REMARKS
GRAND FORKS    PTSUNNY   80  64  58 S13       29.90F
GRND FRKS AFB  PTSUNNY   78  66  66 SW8       29.90F
DEVILS LAKE    MOSUNNY   77  61  57 NW6       29.93S
$$

NDZ022-023-025-028>030-036>039-047>053-022200-
SOUTHEAST NORTH DAKOTA

CITY           SKY/WX    TMP DP  RH WIND       PRES   REMARKS
FARGO          SUNNY     78  54  43 S8        29.96S
JAMESTOWN      PTSUNNY   78  65  63 S9        29.95S
$$



USA.gov is the U.S. government's official web portal to all federal, state and local government web resources and services.